Starlink 11433

operational
NORAD ID: 62008 Int'l Des: 2024-213 Owner: SPXS Country: US Constellation: starlink
LEOCIRCULAR

About Starlink 11433

Description loading...

Live Position

Loading 3D Globe...

Upcoming Passes

Altitude History

Altitude vs Time

uPlot chart will show altitude changes over time

Two-Line Element Set

1 62008U 24213A 25308.23653006 .00182592 00000-0 14744-2 0 9990
2 62008 53.1576 299.5295 0001363 82.1592 277.9580 15.69785475 55214
Epoch: Nov 4, 2025 • Age: 10 hours

Current Status

Altitude 367.3 km
Velocity 7.69 km/s
Sub-Earth Point -26.00°S, 141.58°W
Launch Date Nov 18, 2024
Age 0.9 years
Type internet

Technical Details

Classification Payload
Mass 960.00 kg
Dry Mass 910.00 kg
Total Mass 960.00 kg
Length 0.30 m
Diameter 4.10 m
Span 29.00 m
Shape Box + pan
Manufacturer SPXS
Bus Type Starlink V2MD
Phase Status In Orbit
Owner/State SPXS/US

Large Constellations

Loading constellations...